Terug naar catalogus

SL-16 DEB

LostLEO
NORAD 39893·DEBRIS·🇷🇺 Russia

Gelanceerd Mar 26, 1993 vanaf Baikonur Cosmodrome

Loading…

Volgende Passages (komende 24 uur)

TLE

VerouderdSource: Space-Track

Epoch: Sep 1, 2022, 18:37 UTC

1 39893U 93016BT  22244.77588109  .00002794  00000-0  10908-2 0  9992
2 39893  70.9677 280.7013 0112453  77.2578 284.1091 14.27040030951510

Volg SL-16 DEB in realtime met AllMySat

Download on the App Store